GW7108 Weather Reports


time (UTC)temp
F
wind
direction
speed
knots
gust
knots
rain 1hr
in
rain 24hr
in
rain mn
in
humidity
%
barometer
mb
20260510233503 52 276 7.8 14.8 0.00 0.24 0.00 79 1029.7
20260510233003 52 280 7.8 14.8 0.00 0.24 0.00 79 1029.7
20260510232524 52 282 7.8 13.0 0.00 0.24 0.00 78 1029.8
20260510232003 53 278 7.0 12.2 0.00 0.24 0.00 78 1029.6
20260510231503 53 276 6.1 11.3 0.00 0.24 0.00 78 1029.5
20260510231003 53 277 7.0 15.6 0.00 0.24 0.00 77 1029.7
20260510230524 53 278 7.0 15.6 0.00 0.24 0.00 76 1029.8
20260510230003 53 279 7.0 12.2 0.00 0.25 0.00 76 1029.7
20260510225503 53 278 7.8 14.8 0.00 0.27 0.00 76 1029.8
20260510225003 53 278 7.0 14.8 0.00 0.29 0.00 75 1029.5
20260510224503 53 280 7.0 13.0 0.00 0.29 0.00 75 1029.7
20260510224003 53 282 7.0 13.9 0.00 0.29 0.00 74 1029.5
20260510223503 53 285 7.0 13.9 0.00 0.29 0.00 74 1029.7
20260510223003 53 285 7.0 12.2 0.00 0.29 0.00 74 1029.8
20260510222503 54 284 7.0 12.2 0.00 0.29 0.00 74 1029.6
20260510222003 54 281 7.0 13.0 0.00 0.29 0.00 73 1029.6
20260510221503 54 281 8.7 15.6 0.00 0.29 0.00 73 1029.8
20260510221003 54 282 8.7 15.6 0.00 0.30 0.00 73 1029.5
20260510220503 54 282 7.8 14.8 0.00 0.30 0.00 73 1029.6
20260510220025 54 279 7.8 14.8 0.00 0.30 0.00 73 1029.4
20260510215503 54 278 7.8 12.2 0.00 0.30 0.30 73 1029.4
20260510215003 54 280 7.0 12.2 0.00 0.30 0.30 71 1029.6
20260510214503 54 284 7.0 12.2 0.00 0.30 0.30 71 1029.4
20260510214003 55 288 8.7 15.6 0.00 0.30 0.30 70 1029.5
20260510213503 55 290 10.4 16.5 0.00 0.30 0.30 69 1029.4
20260510213003 55 290 10.4 16.5 0.00 0.30 0.30 69 1029.3
20260510212503 55 288 10.4 15.6 0.00 0.30 0.30 69 1029.5
20260510212003 55 286 9.6 15.6 0.00 0.30 0.30 70 1029.6
20260510211524 54 285 8.7 14.8 0.00 0.30 0.30 70 1029.3
20260510211003 54 287 7.8 13.0 0.00 0.30 0.30 70 1029.4
20260510210503 54 289 7.0 11.3 0.00 0.30 0.30 71 1029.1
20260510210004 54 285 5.2 11.3 0.00 0.30 0.30 72 1029.1
20260510205504 54 279 4.3 7.8 0.00 0.30 0.30 75 1029.3
20260510205003 54 277 5.2 9.6 0.00 0.30 0.30 75 1029.1
20260510204503 54 274 5.2 9.6 0.00 0.30 0.30 75 1029.3
20260510204004 54 268 7.0 11.3 0.00 0.30 0.30 74 1028.9
20260510203524 54 266 7.8 11.3 0.00 0.30 0.30 74 1029.1
20260510203003 54 266 7.8 12.2 0.00 0.30 0.30 73 1028.9
20260510202503 54 264 7.0 12.2 0.00 0.30 0.30 73 1029.0
20260510202003 54 261 7.8 13.0 0.00 0.30 0.30 72 1028.8
20260510201503 55 257 8.7 13.0 0.00 0.30 0.30 72 1028.8
20260510201003 55 253 8.7 13.0 0.00 0.31 0.30 71 1028.8
20260510200503 55 256 8.7 13.0 0.00 0.31 0.30 70 1028.7
20260510200024 54 262 8.7 13.0 0.00 0.31 0.30 72 1028.5
20260510195504 54 266 8.7 13.0 0.00 0.31 0.30 73 1028.7
20260510195003 54 271 7.8 13.0 0.00 0.31 0.30 73 1028.6
20260510194503 55 276 7.0 13.0 0.00 0.31 0.30 72 1028.5
20260510194003 55 279 8.7 14.8 0.00 0.31 0.30 71 1028.4
20260510193503 55 279 8.7 16.5 0.00 0.31 0.30 71 1028.4
20260510193003 54 273 7.8 16.5 0.00 0.31 0.30 73 1028.2
20260510192503 54 272 7.0 13.0 0.00 0.31 0.30 76 1028.2
20260510192003 55 277 7.0 13.0 0.00 0.31 0.30 74 1028.4
20260510191524 55 278 7.8 14.8 0.00 0.31 0.30 73 1028.6
20260510191003 55 279 9.6 15.6 0.00 0.31 0.30 71 1028.2
20260510190524 56 283 9.6 16.5 0.00 0.31 0.30 69 1028.1
20260510190004 56 285 9.6 16.5 0.00 0.31 0.30 69 1028.0
20260510185503 56 286 9.6 16.5 0.00 0.31 0.30 69 1028.0
20260510185003 56 290 10.4 19.1 0.00 0.31 0.30 69 1027.9
20260510184503 56 292 10.4 19.1 0.00 0.31 0.30 68 1028.1
20260510184003 56 293 10.4 16.5 0.00 0.31 0.30 68 1028.1
20260510183503 56 293 10.4 16.5 0.00 0.31 0.30 69 1028.1
20260510183004 56 292 9.6 16.5 0.00 0.31 0.30 70 1027.8
20260510182503 56 292 10.4 20.0 0.00 0.31 0.30 69 1028.0
20260510182003 56 293 11.3 20.0 0.00 0.31 0.30 68 1028.0
20260510181503 57 290 10.4 20.0 0.00 0.31 0.30 67 1027.9
20260510181003 57 283 9.6 20.0 0.00 0.31 0.30 68 1027.7
20260510180503 57 284 9.6 15.6 0.00 0.31 0.30 67 1027.7
20260510180003 58 289 8.7 14.8 0.00 0.31 0.30 66 1027.6
20260510175524 58 294 8.7 13.9 0.00 0.31 0.30 65 1027.9
20260510175003 58 296 8.7 13.9 0.00 0.31 0.30 64 1027.6
20260510174503 58 296 8.7 13.9 0.00 0.31 0.30 63 1027.3
20260510174024 58 301 7.8 13.9 0.00 0.31 0.30 64 1027.4
20260510173524 58 309 7.8 13.9 0.00 0.31 0.30 64 1027.9
20260510173003 58 313 7.8 14.8 0.00 0.31 0.30 67 1027.6
20260510172524 58 310 7.8 14.8 0.00 0.31 0.30 68 1028.0
20260510172003 58 307 7.0 13.0 0.00 0.31 0.30 70 1028.1
20260510171503 57 317 6.1 10.4 0.00 0.31 0.30 74 1028.3
20260510171004 57 315 6.1 10.4 0.00 0.31 0.30 75 1028.2
20260510170503 57 313 5.2 10.4 0.00 0.31 0.30 75 1028.2
20260510170024 57 334 5.2 9.6 0.00 0.31 0.30 76 1028.3
20260510165503 57 353 4.3 8.7 0.00 0.31 0.30 76 1028.3
20260510165003 56 6 5.2 9.6 0.00 0.31 0.30 78 1028.1
20260510164503 57 15 5.2 11.3 0.00 0.31 0.30 76 1028.4
20260510164003 57 6 6.1 13.9 0.00 0.31 0.30 76 1028.2
20260510163524 58 344 7.0 13.9 0.00 0.31 0.30 74 1028.1
20260510163003 59 318 7.8 15.6 0.00 0.31 0.30 66 1028.2
20260510162503 59 311 7.8 15.6 0.00 0.31 0.30 65 1028.1
20260510162024 59 309 8.7 14.8 0.00 0.31 0.30 64 1028.1
20260510161524 59 302 9.6 14.8 0.00 0.31 0.30 64 1027.8
20260510161003 59 306 9.6 14.8 0.00 0.31 0.30 65 1027.6
20260510160503 59 322 8.7 14.8 0.00 0.31 0.30 66 1027.6
20260510160004 60 331 8.7 14.8 0.00 0.31 0.30 64 1027.6
20260510155524 60 319 7.8 14.8 0.00 0.31 0.30 64 1027.7
20260510155003 59 310 7.0 13.0 0.00 0.31 0.30 67 1027.2
20260510154503 59 311 7.0 13.9 0.00 0.31 0.30 69 1027.6
20260510154003 58 303 7.8 13.9 0.00 0.31 0.30 72 1027.7
20260510153504 58 309 7.0 11.3 0.00 0.31 0.30 71 1027.7
20260510153003 58 321 5.2 9.6 0.00 0.31 0.30 72 1027.8
20260510152503 58 328 5.2 9.6 0.00 0.31 0.30 73 1027.9
20260510152003 58 336 6.1 10.4 0.00 0.31 0.30 76 1027.7
20260510151503 58 346 5.2 10.4 0.00 0.31 0.30 73 1027.8
20260510151003 58 353 4.3 9.6 0.00 0.31 0.30 76 1027.8
20260510150524 58 334 4.3 9.6 0.01 0.31 0.30 77 1027.8
20260510150003 58 314 4.3 8.7 0.01 0.31 0.30 77 1027.8
20260510145503 57 314 4.3 8.7 0.01 0.32 0.30 78 1028.1
20260510145003 56 326 4.3 9.6 0.01 0.33 0.30 81 1027.8
20260510144503 55 343 5.2 9.6 0.01 0.33 0.30 82 1028.0
20260510144003 55 347 4.3 7.8 0.02 0.33 0.30 83 1028.1
20260510143503 55 333 3.5 7.8 0.03 0.33 0.30 84 1028.3
20260510143003 54 331 3.5 7.0 0.04 0.33 0.30 86 1028.2
20260510142503 53 340 4.3 7.8 0.04 0.33 0.30 88 1028.4
20260510142003 53 351 4.3 9.6 0.04 0.33 0.30 90 1028.5
20260510141503 52 356 5.2 9.6 0.04 0.33 0.30 91 1028.3
20260510141003 51 353 5.2 10.4 0.04 0.32 0.30 91 1028.5
20260510140524 51 356 6.1 12.2 0.04 0.31 0.29 90 1028.8
20260510135509 52 349 5.2 11.3 0.04 0.31 0.29 91 1028.9
20260510135030 51 354 6.1 13.0 0.04 0.31 0.29 92 1028.6
20260510134503 51 355 8.7 20.0 0.04 0.31 0.29 90 1028.7
20260510134003 51 356 10.4 24.3 0.04 0.31 0.28 89 1029.0
20260510133524 53 337 12.2 24.3 0.02 0.30 0.27 87 1028.8
20260510133003 56 304 13.0 24.3 0.02 0.30 0.26 80 1028.3
20260510132524 56 288 11.3 23.5 0.01 0.31 0.26 76 1028.2
20260510132004 56 287 10.4 19.1 0.01 0.31 0.26 77 1028.2
20260510131507 56 291 11.3 16.5 0.01 0.31 0.26 77 1028.0
20260510131003 56 296 12.2 20.9 0.01 0.32 0.26 77 1028.4
20260510130503 56 297 12.2 20.9 0.00 0.31 0.25 73 1027.9
20260510130003 56 294 11.3 20.9 0.00 0.31 0.25 71 1028.1
20260510125503 56 293 11.3 19.1 0.00 0.31 0.25 72 1028.0
20260510125024 56 298 11.3 19.1 0.00 0.31 0.25 70 1028.2
20260510124506 57 301 11.3 20.0 0.00 0.31 0.25 72 1028.0
20260510124003 56 301 10.4 20.0 0.00 0.31 0.25 71 1027.9
20260510123506 57 302 10.4 20.0 0.00 0.31 0.25 71 1028.0
20260510123003 56 300 11.3 20.0 0.00 0.31 0.25 72 1028.2
20260510122503 56 298 10.4 18.2 0.00 0.31 0.25 72 1028.0
20260510122005 56 300 10.4 19.1 0.00 0.31 0.25 78 1028.1
20260510121503 56 303 10.4 19.1 0.00 0.31 0.25 75 1028.0
20260510121003 56 304 9.6 17.4 0.00 0.31 0.25 74 1028.4
20260510120503 55 303 9.6 16.5 0.00 0.31 0.25 75 1028.2
20260510120003 55 293 7.8 14.8 0.00 0.31 0.25 78 1028.3
20260510115503 54 289 7.0 13.0 0.00 0.31 0.25 80 1028.2
20260510115003 54 296 7.0 12.2 0.00 0.31 0.25 83 1028.5
20260510114503 53 297 7.8 13.0 0.00 0.31 0.25 83 1028.5
20260510114003 53 297 7.8 13.0 0.00 0.31 0.25 83 1028.6
20260510113503 53 298 7.8 14.8 0.00 0.31 0.25 84 1028.3
20260510113024 53 296 7.8 14.8 0.00 0.31 0.25 84 1028.7
20260510112503 53 298 7.8 15.6 0.00 0.31 0.25 85 1028.8
20260510112003 53 312 7.8 15.6 0.01 0.31 0.25 84 1028.4
20260510111503 53 326 7.8 16.5 0.02 0.31 0.25 86 1028.5
20260510111003 53 326 7.8 16.5 0.04 0.31 0.25 86 1028.6
20260510110503 53 325 7.8 16.5 0.09 0.33 0.25 86 1028.5
20260510110003 52 333 7.8 13.9 0.12 0.34 0.25 85 1028.4
20260510105503 52 332 7.8 13.9 0.15 0.37 0.25 87 1028.7
20260510105003 52 327 7.8 13.9 0.15 0.38 0.25 87 1028.7
20260510104503 52 332 7.0 13.0 0.15 0.38 0.25 90 1028.6
20260510104003 52 339 7.0 15.6 0.15 0.39 0.25 91 1028.5
20260510103524 52 339 7.8 15.6 0.15 0.39 0.25 91 1028.7
20260510103003 51 336 8.7 14.8 0.15 0.39 0.25 92 1028.9
20260510102503 51 334 10.4 20.0 0.15 0.39 0.24 91 1028.8
20260510102003 51 339 10.4 20.0 0.14 0.38 0.24 90 1028.9
20260510101503 51 346 8.7 18.2 0.13 0.37 0.23 90 1028.6
20260510101003 53 331 9.6 18.2 0.11 0.35 0.21 89 1028.5
20260510100503 53 322 9.6 18.2 0.06 0.30 0.16 88 1028.4
20260510100003 54 330 7.8 15.6 0.04 0.28 0.13 86 1028.2
20260510095503 55 334 7.8 15.6 0.01 0.25 0.10 83 1028.1
20260510095024 55 337 8.7 17.4 0.00 0.24 0.10 81 1027.9
20260510094503 57 322 10.4 18.2 0.00 0.24 0.10 77 1028.1
20260510094003 58 301 12.2 20.9 0.00 0.24 0.09 71 1027.9
20260510093503 58 296 13.0 25.2 0.00 0.24 0.09 69 1027.7
20260510093003 59 291 14.8 25.2 0.00 0.24 0.09 67 1027.8
20260510092503 59 290 14.8 24.3 0.00 0.24 0.09 67 1027.4
20260510092003 59 295 13.9 25.2 0.00 0.24 0.09 67 1027.7
20260510091503 59 292 13.9 25.2 0.00 0.24 0.09 67 1027.3
20260510091003 58 286 12.2 25.2 0.00 0.24 0.09 69 1027.3
20260510090524 58 284 13.0 25.2 0.00 0.24 0.09 69 1027.4
20260510090003 58 286 13.9 25.2 0.00 0.27 0.09 68 1027.8
20260510085503 58 284 12.2 20.9 0.00 0.37 0.09 68 1027.7
20260510085003 58 281 10.4 18.2 0.00 0.38 0.09 69 1027.8
20260510084503 58 282 11.3 21.7 0.00 0.38 0.09 72 1027.9
20260510084003 57 281 11.3 21.7 0.00 0.38 0.09 70 1027.8
20260510083503 57 277 11.3 19.1 0.00 0.38 0.09 72 1027.7
20260510083024 57 274 9.6 16.5 0.00 0.38 0.09 72 1027.9
20260510082503 57 278 7.8 15.6 0.00 0.38 0.09 74 1027.8
20260510082003 56 276 8.7 19.1 0.00 0.38 0.09 74 1027.9
20260510081504 56 270 9.6 19.1 0.00 0.38 0.09 76 1028.0
20260510081003 56 269 8.7 19.1 0.00 0.38 0.09 76 1028.0
20260510080524 56 268 9.6 14.8 0.00 0.38 0.09 75 1027.9
20260510080003 56 265 10.4 18.2 0.00 0.38 0.09 76 1028.0
20260510075503 56 266 10.4 18.2 0.00 0.38 0.09 75 1028.0
20260510075003 56 276 9.6 16.5 0.00 0.38 0.09 75 1027.9
20260510074503 56 280 9.6 15.6 0.00 0.38 0.09 75 1027.9
20260510074024 56 274 8.7 15.6 0.00 0.38 0.09 76 1027.8
20260510073503 55 267 8.7 13.9 0.00 0.38 0.09 79 1027.9
20260510073003 55 260 9.6 13.9 0.00 0.38 0.09 78 1027.9
20260510072503 55 262 8.7 13.9 0.00 0.38 0.09 79 1028.0
20260510072024 55 268 8.7 15.6 0.00 0.38 0.09 79 1028.0
20260510071503 55 269 9.6 16.5 0.00 0.38 0.09 79 1028.0
20260510071003 55 268 10.4 18.2 0.00 0.38 0.09 78 1027.7
20260510070503 55 268 10.4 18.2 0.00 0.38 0.09 77 1027.7
20260510070003 55 266 10.4 16.5 0.00 0.38 0.09 78 1027.6
20260510065503 55 263 10.4 16.5 0.00 0.38 0.09 77 1027.6
20260510065003 55 265 8.7 14.8 0.00 0.38 0.09 77 1027.6
20260510064503 55 274 8.7 15.6 0.00 0.38 0.09 77 1027.7
20260510064003 55 277 8.7 15.6 0.00 0.38 0.09 78 1027.8
20260510063504 54 273 7.8 13.9 0.00 0.38 0.09 79 1027.6
20260510063003 54 268 8.7 16.5 0.00 0.38 0.09 81 1027.9
20260510062503 54 266 9.6 16.5 0.00 0.38 0.09 80 1027.7
20260510062024 54 263 8.7 14.8 0.00 0.38 0.09 81 1027.7
20260510061503 53 264 7.8 13.9 0.00 0.38 0.09 82 1027.2
20260510061003 53 268 7.0 11.3 0.00 0.38 0.09 83 1027.7
20260510060503 53 269 7.0 11.3 0.00 0.38 0.09 84 1027.3
20260510060024 53 268 7.0 11.3 0.00 0.38 0.09 85 1027.4
20260510055503 53 268 7.8 12.2 0.00 0.38 0.09 85 1027.4
20260510055003 52 268 7.8 13.0 0.00 0.38 0.09 85 1027.6
20260510054503 52 267 7.8 13.0 0.00 0.38 0.09 86 1027.4
20260510054003 52 267 7.0 11.3 0.00 0.38 0.09 86 1027.4
20260510053503 52 272 7.0 12.2 0.00 0.38 0.09 86 1027.4
20260510053003 52 276 6.1 12.2 0.00 0.38 0.09 86 1027.3
20260510052503 52 270 6.1 10.4 0.00 0.38 0.09 86 1027.6
20260510052003 52 263 5.2 9.6 0.00 0.38 0.09 86 1027.6
20260510051503 53 265 4.3 9.6 0.00 0.38 0.09 85 1027.3
20260510051024 53 271 4.3 8.7 0.00 0.38 0.09 85 1027.4
20260510050503 52 263 5.2 9.6 0.00 0.38 0.09 86 1027.7
20260510050003 52 254 5.2 9.6 0.00 0.38 0.09 87 1027.4
20260510045524 52 250 5.2 8.7 0.00 0.38 0.09 86 1027.6
20260510045003 53 246 5.2 8.7 0.00 0.38 0.09 85 1027.6
20260510044503 53 249 5.2 8.7 0.00 0.38 0.09 84 1027.7
20260510044003 53 255 5.2 7.8 0.00 0.38 0.09 85 1027.4
20260510043503 52 245 5.2 8.7 0.00 0.38 0.09 85 1027.6
20260510043003 52 243 5.2 8.7 0.00 0.38 0.09 86 1027.8
20260510042503 52 251 4.3 7.0 0.00 0.38 0.09 88 1027.9
20260510042003 52 252 3.5 7.0 0.00 0.38 0.09 89 1027.6
20260510041503 52 243 3.5 7.0 0.00 0.38 0.09 88 1027.7
20260510041003 52 245 3.5 7.0 0.00 0.38 0.09 88 1027.9
20260510040503 52 256 3.5 5.2 0.00 0.38 0.09 88 1027.7
20260510040024 52 250 3.5 5.2 0.00 0.38 0.09 87 1027.8
20260510035503 52 245 3.5 5.2 0.01 0.38 0.09 87 1027.8
20260510035003 52 249 3.5 5.2 0.03 0.38 0.09 87 1027.9
20260510034503 52 249 3.5 5.2 0.03 0.38 0.09 88 1027.8
20260510034003 52 243 3.5 7.8 0.03 0.38 0.09 87 1027.9
20260510033503 52 234 4.3 7.8 0.03 0.38 0.09 87 1028.0
20260510033003 52 235 4.3 7.8 0.03 0.38 0.09 87 1027.7
20260510032503 52 242 4.3 7.0 0.03 0.38 0.09 88 1027.7
20260510032003 52 261 4.3 8.7 0.03 0.38 0.09 88 1028.0
20260510031503 52 280 5.2 8.7 0.03 0.38 0.09 87 1028.0
20260510031003 52 287 6.1 9.6 0.03 0.38 0.09 88 1028.1
20260510030503 52 291 6.1 9.6 0.03 0.38 0.09 87 1028.0
20260510030003 52 289 5.2 9.6 0.03 0.38 0.09 87 1028.0
20260510025503 52 279 5.2 7.8 0.02 0.37 0.08 85 1028.0
20260510025003 52 263 5.2 8.7 0.00 0.35 0.07 84 1028.1
20260510024503 52 248 6.1 9.6 0.00 0.35 0.07 83 1028.1
20260510024024 52 242 5.2 9.6 0.00 0.35 0.07 82 1028.2
20260510023503 52 227 6.1 8.7 0.00 0.35 0.07 83 1027.9
20260510023003 52 213 5.2 8.7 0.00 0.35 0.07 83 1028.1
20260510022503 52 210 5.2 7.8 0.00 0.35 0.07 84 1028.1
20260510022003 52 215 4.3 8.7 0.00 0.35 0.07 84 1028.1
20260510021503 52 222 4.3 8.7 0.00 0.35 0.07 84 1028.1
20260510021003 51 223 5.2 8.7 0.00 0.35 0.07 84 1028.2
20260510020503 51 228 5.2 9.6 0.00 0.35 0.07 84 1028.0
20260510020004 51 225 4.3 9.6 0.00 0.35 0.07 84 1028.1
20260510015524 51 219 4.3 8.7 0.00 0.35 0.07 84 1028.2
20260510015024 51 227 5.2 9.6 0.00 0.35 0.07 85 1028.1
20260510014503 51 228 6.1 11.3 0.00 0.35 0.07 85 1028.4
20260510014003 51 226 6.1 11.3 0.00 0.35 0.07 86 1028.0
20260510013503 51 221 6.1 10.4 0.00 0.35 0.07 87 1028.2
20260510013003 51 219 6.1 10.4 0.00 0.35 0.07 87 1028.3
20260510012503 51 223 6.1 10.4 0.00 0.35 0.07 87 1028.2
20260510012003 51 220 6.1 10.4 0.00 0.35 0.07 87 1028.3
20260510011503 51 222 6.1 10.4 0.00 0.35 0.07 87 1028.4
20260510011003 51 237 6.1 9.6 0.00 0.35 0.07 86 1028.1
20260510010503 52 254 6.1 9.6 0.00 0.35 0.07 85 1028.6
20260510010003 51 251 6.1 10.4 0.00 0.35 0.07 86 1028.3
20260510005503 52 247 6.1 11.3 0.00 0.35 0.07 85 1028.4
20260510005003 52 265 6.1 13.0 0.00 0.35 0.07 85 1028.3
20260510004503 53 275 7.0 13.0 0.00 0.35 0.07 83 1028.4
20260510004003 53 276 7.8 13.9 0.00 0.35 0.07 84 1028.3
20260510003503 52 271 7.0 13.9 0.00 0.35 0.07 85 1028.4
20260510003024 52 267 6.1 11.3 0.00 0.35 0.07 86 1028.5
20260510002503 52 274 6.1 12.2 0.00 0.35 0.07 87 1028.6
20260510002003 52 285 7.0 13.0 0.00 0.35 0.07 86 1028.5
20260510001503 52 290 7.0 13.0 0.00 0.35 0.07 86 1028.3
20260510001003 52 288 7.0 13.0 0.01 0.35 0.07 87 1028.5
20260510000503 52 287 7.8 13.9 0.01 0.35 0.07 87 1028.4
20260510000003 52 286 7.0 13.9 0.02 0.35 0.07 88 1028.4
20260509235503 52 284 6.1 11.3 0.04 0.35 0.07 90 1028.4
20260509235003 52 284 5.2 8.7 0.06 0.35 0.07 91 1028.6
20260509234503 52 289 5.2 8.7 0.06 0.35 0.06 92 1028.4
20260509234024 52 298 4.3 8.7 0.06 0.35 0.06 92 1028.6